Year,Month,Day,Hour,Minute,Value (Times are PST for temperature in C)
2008,08,07,00,00,14.90
2008,08,07,00,01,14.80
2008,08,07,00,02,14.80
2008,08,07,00,03,14.80
2008,08,07,00,04,14.80
2008,08,07,00,05,14.70
2008,08,07,00,06,14.70
2008,08,07,00,07,14.60
2008,08,07,00,08,14.60
2008,08,07,00,09,14.50
2008,08,07,00,10,14.40
2008,08,07,00,11,14.40
2008,08,07,00,12,14.30
2008,08,07,00,13,14.30
2008,08,07,00,14,14.20
2008,08,07,00,15,14.20
2008,08,07,00,16,14.20
2008,08,07,00,17,14.20
2008,08,07,00,18,14.20
2008,08,07,00,19,14.20
2008,08,07,00,20,14.20
2008,08,07,00,21,14.20
2008,08,07,00,22,14.10
2008,08,07,00,23,14.10
2008,08,07,00,24,14.10
2008,08,07,00,25,14.10
2008,08,07,00,26,14.10
2008,08,07,00,27,14.10
2008,08,07,00,28,14.10
2008,08,07,00,29,14.20
2008,08,07,00,30,14.20
2008,08,07,00,31,14.20
2008,08,07,00,32,14.20
2008,08,07,00,33,14.20
2008,08,07,00,34,14.10
2008,08,07,00,35,14.10
2008,08,07,00,36,14.10
2008,08,07,00,37,14.10
2008,08,07,00,38,14.10
2008,08,07,00,39,14.00
2008,08,07,00,40,14.00
2008,08,07,00,41,14.00
2008,08,07,00,42,14.00
2008,08,07,00,43,14.00
2008,08,07,00,44,14.00
2008,08,07,00,45,14.00
2008,08,07,00,46,13.90
2008,08,07,00,47,13.90
2008,08,07,00,48,13.90
2008,08,07,00,49,13.90
2008,08,07,00,50,13.90
2008,08,07,00,51,13.90
2008,08,07,00,52,13.90
2008,08,07,00,53,13.90
2008,08,07,00,54,13.90
2008,08,07,00,55,13.90
2008,08,07,00,56,13.90
2008,08,07,00,57,13.90
2008,08,07,00,58,13.80
2008,08,07,00,59,13.80
2008,08,07,01,00,13.80
2008,08,07,01,01,13.80
2008,08,07,01,02,13.80
2008,08,07,01,03,13.80
2008,08,07,01,04,13.80
2008,08,07,01,05,13.70
2008,08,07,01,06,13.70
2008,08,07,01,07,13.70
2008,08,07,01,08,13.70
2008,08,07,01,09,13.70
2008,08,07,01,10,13.70
2008,08,07,01,11,13.70
2008,08,07,01,12,13.70
2008,08,07,01,13,13.70
2008,08,07,01,14,13.70
2008,08,07,01,15,13.70
2008,08,07,01,16,13.70
2008,08,07,01,17,13.70
2008,08,07,01,18,13.70
2008,08,07,01,19,13.70
2008,08,07,01,20,13.70
2008,08,07,01,21,13.70
2008,08,07,01,22,13.70
2008,08,07,01,23,13.70
2008,08,07,01,24,13.70
2008,08,07,01,25,13.70
2008,08,07,01,26,13.70
2008,08,07,01,27,13.70
2008,08,07,01,28,13.70
2008,08,07,01,29,13.70
2008,08,07,01,30,13.70
2008,08,07,01,31,13.70
2008,08,07,01,32,13.70
2008,08,07,01,33,13.70
2008,08,07,01,34,13.70
2008,08,07,01,35,13.70
2008,08,07,01,36,13.70
2008,08,07,01,37,13.70
2008,08,07,01,38,13.70
2008,08,07,01,39,13.60
2008,08,07,01,40,13.60
2008,08,07,01,41,13.60
2008,08,07,01,42,13.60
2008,08,07,01,43,13.60
2008,08,07,01,44,13.50
2008,08,07,01,45,13.50
2008,08,07,01,46,13.50
2008,08,07,01,47,13.50
2008,08,07,01,48,13.50
2008,08,07,01,49,13.40
2008,08,07,01,50,13.40
2008,08,07,01,51,13.40
2008,08,07,01,52,13.40
2008,08,07,01,53,13.40
2008,08,07,01,54,13.40
2008,08,07,01,55,13.40
2008,08,07,01,56,13.40
2008,08,07,01,57,13.40
2008,08,07,01,58,13.40
2008,08,07,01,59,13.40
2008,08,07,02,00,13.40
2008,08,07,02,01,13.40
2008,08,07,02,02,13.40
2008,08,07,02,03,13.40
2008,08,07,02,04,13.30
2008,08,07,02,05,13.30
2008,08,07,02,06,13.30
2008,08,07,02,07,13.30
2008,08,07,02,08,13.20
2008,08,07,02,09,13.20
2008,08,07,02,10,13.20
2008,08,07,02,11,13.20
2008,08,07,02,12,13.20
2008,08,07,02,13,13.20
2008,08,07,02,14,13.20
2008,08,07,02,15,13.10
2008,08,07,02,16,13.10
2008,08,07,02,17,13.10
2008,08,07,02,18,13.10
2008,08,07,02,19,13.10
2008,08,07,02,20,13.10
2008,08,07,02,21,13.10
2008,08,07,02,22,13.10
2008,08,07,02,23,13.10
2008,08,07,02,24,13.10
2008,08,07,02,25,13.10
2008,08,07,02,26,13.10
2008,08,07,02,27,13.00
2008,08,07,02,28,13.00
2008,08,07,02,29,13.00
2008,08,07,02,30,13.00
2008,08,07,02,31,13.00
2008,08,07,02,32,13.00
2008,08,07,02,33,13.00
2008,08,07,02,34,13.00
2008,08,07,02,35,12.90
2008,08,07,02,36,12.90
2008,08,07,02,37,12.90
2008,08,07,02,38,12.90
2008,08,07,02,39,12.90
2008,08,07,02,40,12.80
2008,08,07,02,41,12.80
2008,08,07,02,42,12.80
2008,08,07,02,43,12.80
2008,08,07,02,44,12.80
2008,08,07,02,45,12.80
2008,08,07,02,46,12.80
2008,08,07,02,47,12.80
2008,08,07,02,48,12.80
2008,08,07,02,49,12.80
2008,08,07,02,50,12.70
2008,08,07,02,51,12.70
2008,08,07,02,52,12.70
2008,08,07,02,53,12.70
2008,08,07,02,54,12.70
2008,08,07,02,55,12.70
2008,08,07,02,56,12.60
2008,08,07,02,57,12.60
2008,08,07,02,58,12.60
2008,08,07,02,59,12.60
2008,08,07,03,00,12.60
2008,08,07,03,01,12.60
2008,08,07,03,02,12.60
2008,08,07,03,03,12.60
2008,08,07,03,04,12.50
2008,08,07,03,05,12.50
2008,08,07,03,06,12.50
2008,08,07,03,07,12.50
2008,08,07,03,08,12.50
2008,08,07,03,09,12.50
2008,08,07,03,10,12.50
2008,08,07,03,11,12.50
2008,08,07,03,12,12.50
2008,08,07,03,13,12.40
2008,08,07,03,14,12.40
2008,08,07,03,15,12.40
2008,08,07,03,16,12.40
2008,08,07,03,17,12.40
2008,08,07,03,18,12.40
2008,08,07,03,19,12.40
2008,08,07,03,20,12.40
2008,08,07,03,21,12.40
2008,08,07,03,22,12.40
2008,08,07,03,23,12.40
2008,08,07,03,24,12.40
2008,08,07,03,25,12.40
2008,08,07,03,26,12.40
2008,08,07,03,27,12.40
2008,08,07,03,28,12.40
2008,08,07,03,29,12.40
2008,08,07,03,30,12.40
2008,08,07,03,31,12.40
2008,08,07,03,32,12.40
2008,08,07,03,33,12.40
2008,08,07,03,34,12.40
2008,08,07,03,35,12.40
2008,08,07,03,36,12.40
2008,08,07,03,37,12.40
2008,08,07,03,38,12.40
2008,08,07,03,39,12.40
2008,08,07,03,40,12.40
2008,08,07,03,41,12.40
2008,08,07,03,42,12.40
2008,08,07,03,43,12.40
2008,08,07,03,44,12.40
2008,08,07,03,45,12.40
2008,08,07,03,46,12.40
2008,08,07,03,47,12.40
2008,08,07,03,48,12.40
2008,08,07,03,49,12.40
2008,08,07,03,50,12.30
2008,08,07,03,51,12.30
2008,08,07,03,52,12.30
2008,08,07,03,53,12.30
2008,08,07,03,54,12.30
2008,08,07,03,55,12.30
2008,08,07,03,56,12.30
2008,08,07,03,57,12.30
2008,08,07,03,58,12.30
2008,08,07,03,59,12.30
2008,08,07,04,00,12.30
2008,08,07,04,01,12.30
2008,08,07,04,02,12.30
2008,08,07,04,03,12.30
2008,08,07,04,04,12.30
2008,08,07,04,05,12.30
2008,08,07,04,06,12.30
2008,08,07,04,07,12.30
2008,08,07,04,08,12.30
2008,08,07,04,09,12.30
2008,08,07,04,10,12.30
2008,08,07,04,11,12.30
2008,08,07,04,12,12.30
2008,08,07,04,13,12.30
2008,08,07,04,14,12.30
2008,08,07,04,15,12.30
2008,08,07,04,16,12.30
2008,08,07,04,17,12.30
2008,08,07,04,18,12.30
2008,08,07,04,19,12.30
2008,08,07,04,20,12.30
2008,08,07,04,21,12.30
2008,08,07,04,22,12.30
2008,08,07,04,23,12.30
2008,08,07,04,24,12.30
2008,08,07,04,25,12.30
2008,08,07,04,26,12.30
2008,08,07,04,27,12.30
2008,08,07,04,28,12.20
2008,08,07,04,29,12.20
2008,08,07,04,30,12.20
2008,08,07,04,31,12.20
2008,08,07,04,32,12.20
2008,08,07,04,33,12.20
2008,08,07,04,34,12.20
2008,08,07,04,35,12.10
2008,08,07,04,36,12.10
2008,08,07,04,37,12.10
2008,08,07,04,38,12.10
2008,08,07,04,39,12.10
2008,08,07,04,40,12.10
2008,08,07,04,41,12.10
2008,08,07,04,42,12.10
2008,08,07,04,43,12.00
2008,08,07,04,44,12.00
2008,08,07,04,45,12.00
2008,08,07,04,46,12.00
2008,08,07,04,47,12.00
2008,08,07,04,48,12.00
2008,08,07,04,49,12.00
2008,08,07,04,50,12.00
2008,08,07,04,51,11.90
2008,08,07,04,52,11.90
2008,08,07,04,53,11.90
2008,08,07,04,54,11.90
2008,08,07,04,55,11.90
2008,08,07,04,56,11.90
2008,08,07,04,57,11.90
2008,08,07,04,58,11.90
2008,08,07,04,59,11.90
2008,08,07,05,00,11.90
2008,08,07,05,01,11.80
2008,08,07,05,02,11.80
2008,08,07,05,03,11.80
2008,08,07,05,04,11.80
2008,08,07,05,05,11.80
2008,08,07,05,06,11.80
2008,08,07,05,07,11.80
2008,08,07,05,08,11.80
2008,08,07,05,09,11.80
2008,08,07,05,10,11.80
2008,08,07,05,11,11.80
2008,08,07,05,12,11.80
2008,08,07,05,13,11.80
2008,08,07,05,14,11.80
2008,08,07,05,15,11.80
2008,08,07,05,16,11.80
2008,08,07,05,17,11.80
2008,08,07,05,18,11.80
2008,08,07,05,19,11.80
2008,08,07,05,20,11.80
2008,08,07,05,21,11.80
2008,08,07,05,22,11.80
2008,08,07,05,23,11.80
2008,08,07,05,24,11.80
2008,08,07,05,25,11.80
2008,08,07,05,26,11.80
2008,08,07,05,27,11.80
2008,08,07,05,28,11.80
2008,08,07,05,29,11.80
2008,08,07,05,30,11.80
2008,08,07,05,31,11.80
2008,08,07,05,32,11.80
2008,08,07,05,33,11.80
2008,08,07,05,34,11.80
2008,08,07,05,35,11.80
2008,08,07,05,36,11.80
2008,08,07,05,37,11.80
2008,08,07,05,38,11.70
2008,08,07,05,39,11.70
2008,08,07,05,40,11.70
2008,08,07,05,41,11.70
2008,08,07,05,42,11.70
2008,08,07,05,43,11.70
2008,08,07,05,44,11.70
2008,08,07,05,45,11.70
2008,08,07,05,46,11.70
2008,08,07,05,47,11.70
2008,08,07,05,48,11.70
2008,08,07,05,49,11.70
2008,08,07,05,50,11.70
2008,08,07,05,51,11.70
2008,08,07,05,52,11.70
2008,08,07,05,53,11.70
2008,08,07,05,54,11.70
2008,08,07,05,55,11.70
2008,08,07,05,56,11.70
2008,08,07,05,57,11.60
2008,08,07,05,58,11.60
2008,08,07,05,59,11.60
2008,08,07,06,00,11.60
2008,08,07,06,01,11.60
2008,08,07,06,02,11.60
2008,08,07,06,03,11.60
2008,08,07,06,04,11.60
2008,08,07,06,05,11.60
2008,08,07,06,06,11.60
2008,08,07,06,07,11.60
2008,08,07,06,08,11.60
2008,08,07,06,09,11.60
2008,08,07,06,10,11.70
2008,08,07,06,11,11.60
2008,08,07,06,12,11.60
2008,08,07,06,13,11.60
2008,08,07,06,14,11.60
2008,08,07,06,15,11.60
2008,08,07,06,16,11.70
2008,08,07,06,17,11.70
2008,08,07,06,18,11.70
2008,08,07,06,19,11.70
2008,08,07,06,20,11.70
2008,08,07,06,21,11.70
2008,08,07,06,22,11.70
2008,08,07,06,23,11.70
2008,08,07,06,24,11.70
2008,08,07,06,25,11.70
2008,08,07,06,26,11.70
2008,08,07,06,27,11.70
2008,08,07,06,28,11.70
2008,08,07,06,29,11.70
2008,08,07,06,30,11.70
2008,08,07,06,31,11.70
2008,08,07,06,32,11.70
2008,08,07,06,33,11.70
2008,08,07,06,34,11.70
2008,08,07,06,35,11.80
2008,08,07,06,36,11.80
2008,08,07,06,37,11.80
2008,08,07,06,38,11.80
2008,08,07,06,39,11.80
2008,08,07,06,40,11.80
2008,08,07,06,41,11.80
2008,08,07,06,42,11.80
2008,08,07,06,43,11.80
2008,08,07,06,44,11.80
2008,08,07,06,45,11.80
2008,08,07,06,46,11.80
2008,08,07,06,47,11.80
2008,08,07,06,48,11.80
2008,08,07,06,49,11.80
2008,08,07,06,50,11.90
2008,08,07,06,51,11.90
2008,08,07,06,52,11.90
2008,08,07,06,53,11.90
2008,08,07,06,54,12.00
2008,08,07,06,55,12.00
2008,08,07,06,56,12.00
2008,08,07,06,57,12.00
2008,08,07,06,58,12.10
2008,08,07,06,59,12.10
2008,08,07,07,00,12.10
2008,08,07,07,01,12.10
2008,08,07,07,02,12.20
2008,08,07,07,03,12.20
2008,08,07,07,04,12.20
2008,08,07,07,05,12.30
2008,08,07,07,06,12.30
2008,08,07,07,07,12.30
2008,08,07,07,08,12.30
2008,08,07,07,09,12.30
2008,08,07,07,10,12.40
2008,08,07,07,11,12.40
2008,08,07,07,12,12.40
2008,08,07,07,13,12.40
2008,08,07,07,14,12.50
2008,08,07,07,15,12.50
2008,08,07,07,16,12.50
2008,08,07,07,17,12.60
2008,08,07,07,18,12.70
2008,08,07,07,19,12.70
2008,08,07,07,20,12.80
2008,08,07,07,21,12.80
2008,08,07,07,22,12.80
2008,08,07,07,23,12.90
2008,08,07,07,24,13.00
2008,08,07,07,25,13.10
2008,08,07,07,26,13.20
2008,08,07,07,27,13.30
2008,08,07,07,28,13.40
2008,08,07,07,29,13.50
2008,08,07,07,30,13.50
2008,08,07,07,31,13.60
2008,08,07,07,32,13.60
2008,08,07,07,33,13.60
2008,08,07,07,34,13.60
2008,08,07,07,35,13.70
2008,08,07,07,36,13.70
2008,08,07,07,37,13.80
2008,08,07,07,38,13.90
2008,08,07,07,39,14.00
2008,08,07,07,40,14.10
2008,08,07,07,41,14.20
2008,08,07,07,42,14.20
2008,08,07,07,43,14.30
2008,08,07,07,44,14.40
2008,08,07,07,45,14.50
2008,08,07,07,46,14.60
2008,08,07,07,47,14.70
2008,08,07,07,48,14.70
2008,08,07,07,49,14.70
2008,08,07,07,50,14.70
2008,08,07,07,51,14.70
2008,08,07,07,52,14.60
2008,08,07,07,53,14.60
2008,08,07,07,54,14.60
2008,08,07,07,55,14.60
2008,08,07,07,56,14.50
2008,08,07,07,57,14.50
2008,08,07,07,58,14.50
2008,08,07,07,59,14.40
2008,08,07,08,00,14.40
2008,08,07,08,01,14.40
2008,08,07,08,02,14.40
2008,08,07,08,03,14.40
2008,08,07,08,04,14.40
2008,08,07,08,05,14.40
2008,08,07,08,06,14.50
2008,08,07,08,07,14.60
2008,08,07,08,08,14.60
2008,08,07,08,09,14.70
2008,08,07,08,10,14.70
2008,08,07,08,11,14.80
2008,08,07,08,12,14.80
2008,08,07,08,13,14.80
2008,08,07,08,14,14.80
2008,08,07,08,15,14.90
2008,08,07,08,16,15.00
2008,08,07,08,17,15.10
2008,08,07,08,18,15.10
2008,08,07,08,19,15.20
2008,08,07,08,20,15.30
2008,08,07,08,21,15.40
2008,08,07,08,22,15.50
2008,08,07,08,23,15.40
2008,08,07,08,24,15.30
2008,08,07,08,25,15.30
2008,08,07,08,26,15.30
2008,08,07,08,27,15.30
2008,08,07,08,28,15.40
2008,08,07,08,29,15.50
2008,08,07,08,30,15.50
2008,08,07,08,31,15.60
2008,08,07,08,32,15.80
2008,08,07,08,33,15.80
2008,08,07,08,34,16.00
2008,08,07,08,35,16.10
2008,08,07,08,36,16.20
2008,08,07,08,37,16.30
2008,08,07,08,38,16.40
2008,08,07,08,39,16.50
2008,08,07,08,40,16.60
2008,08,07,08,41,16.70
2008,08,07,08,42,16.70
2008,08,07,08,43,16.60
2008,08,07,08,44,16.40
2008,08,07,08,45,16.20
2008,08,07,08,46,16.10
2008,08,07,08,47,16.00
2008,08,07,08,48,15.80
2008,08,07,08,49,15.80
2008,08,07,08,50,15.80
2008,08,07,08,51,15.60
2008,08,07,08,52,15.50
2008,08,07,08,53,15.40
2008,08,07,08,54,15.40
2008,08,07,08,55,15.40
2008,08,07,08,56,15.50
2008,08,07,08,57,15.60
2008,08,07,08,58,15.60
2008,08,07,08,59,15.70
2008,08,07,09,00,15.70
2008,08,07,09,01,15.60
2008,08,07,09,02,15.50
2008,08,07,09,03,15.60
2008,08,07,09,04,15.60
2008,08,07,09,05,15.70
2008,08,07,09,06,15.80
2008,08,07,09,07,15.80
2008,08,07,09,08,15.80
2008,08,07,09,09,16.00
2008,08,07,09,10,16.10
2008,08,07,09,11,16.20
2008,08,07,09,12,16.30
2008,08,07,09,13,16.30
2008,08,07,09,14,16.40
2008,08,07,09,15,16.40
2008,08,07,09,16,16.50
2008,08,07,09,17,16.60
2008,08,07,09,18,16.70
2008,08,07,09,19,16.90
2008,08,07,09,20,17.00
2008,08,07,09,21,17.10
2008,08,07,09,22,17.30
2008,08,07,09,23,17.40
2008,08,07,09,24,17.50
2008,08,07,09,25,17.50
2008,08,07,09,26,17.40
2008,08,07,09,27,17.30
2008,08,07,09,28,17.30
2008,08,07,09,29,17.20
2008,08,07,09,30,17.20
2008,08,07,09,31,17.10
2008,08,07,09,32,17.10
2008,08,07,09,33,17.20
2008,08,07,09,34,17.30
2008,08,07,09,35,17.30
2008,08,07,09,36,17.40
2008,08,07,09,37,17.50
2008,08,07,09,38,17.50
2008,08,07,09,39,17.50
2008,08,07,09,40,17.60
2008,08,07,09,41,17.60
2008,08,07,09,42,17.50
2008,08,07,09,43,17.30
2008,08,07,09,44,17.30
2008,08,07,09,45,17.20
2008,08,07,09,46,17.10
2008,08,07,09,47,17.00
2008,08,07,09,48,16.90
2008,08,07,09,49,16.90
2008,08,07,09,50,17.00
2008,08,07,09,51,17.20
2008,08,07,09,52,17.20
2008,08,07,09,53,17.30
2008,08,07,09,54,17.30
2008,08,07,09,55,17.30
2008,08,07,09,56,17.20
2008,08,07,09,57,17.30
2008,08,07,09,58,17.30
2008,08,07,09,59,17.40
2008,08,07,10,00,17.50
2008,08,07,10,01,17.50
2008,08,07,10,02,17.50
2008,08,07,10,03,17.50
2008,08,07,10,04,17.50
2008,08,07,10,05,17.50
2008,08,07,10,06,17.50
2008,08,07,10,07,17.40
2008,08,07,10,08,17.30
2008,08,07,10,09,17.20
2008,08,07,10,10,17.20
2008,08,07,10,11,17.10
2008,08,07,10,12,17.10
2008,08,07,10,13,17.10
2008,08,07,10,14,17.00
2008,08,07,10,15,17.00
2008,08,07,10,16,17.00
2008,08,07,10,17,17.00
2008,08,07,10,18,17.00
2008,08,07,10,19,16.90
2008,08,07,10,20,16.80
2008,08,07,10,21,16.70
2008,08,07,10,22,16.70
2008,08,07,10,23,16.70
2008,08,07,10,24,16.70
2008,08,07,10,25,16.70
2008,08,07,10,26,16.70
2008,08,07,10,27,16.70
2008,08,07,10,28,16.70
2008,08,07,10,29,16.80
2008,08,07,10,30,17.00
2008,08,07,10,31,17.10
2008,08,07,10,32,17.20
2008,08,07,10,33,17.30
2008,08,07,10,34,17.40
2008,08,07,10,35,17.60
2008,08,07,10,36,17.60
2008,08,07,10,37,17.70
2008,08,07,10,38,17.80
2008,08,07,10,39,17.90
2008,08,07,10,40,18.10
2008,08,07,10,41,18.10
2008,08,07,10,42,18.10
2008,08,07,10,43,18.10
2008,08,07,10,44,18.00
2008,08,07,10,45,17.90
2008,08,07,10,46,17.90
2008,08,07,10,47,18.00
2008,08,07,10,48,18.10
2008,08,07,10,49,18.20
2008,08,07,10,50,18.30
2008,08,07,10,51,18.30
2008,08,07,10,52,18.30
2008,08,07,10,53,18.30
2008,08,07,10,54,18.40
2008,08,07,10,55,18.50
2008,08,07,10,56,18.60
2008,08,07,10,57,18.70
2008,08,07,10,58,18.80
2008,08,07,10,59,18.90
2008,08,07,11,00,18.90
2008,08,07,11,01,19.00
2008,08,07,11,02,19.10
2008,08,07,11,03,19.10
2008,08,07,11,04,19.10
2008,08,07,11,05,19.10
2008,08,07,11,06,19.10
2008,08,07,11,07,19.10
2008,08,07,11,08,19.10
2008,08,07,11,09,18.90
2008,08,07,11,10,18.90
2008,08,07,11,11,18.90
2008,08,07,11,12,18.90
2008,08,07,11,13,18.90
2008,08,07,11,14,18.90
2008,08,07,11,15,18.90
2008,08,07,11,16,18.90
2008,08,07,11,17,18.70
2008,08,07,11,18,18.50
2008,08,07,11,19,18.40
2008,08,07,11,20,18.20
2008,08,07,11,21,17.90
2008,08,07,11,22,17.50
2008,08,07,11,23,17.10
2008,08,07,11,24,16.80
2008,08,07,11,25,16.50
2008,08,07,11,26,16.40
2008,08,07,11,27,16.20
2008,08,07,11,28,16.10
2008,08,07,11,29,16.10
2008,08,07,11,30,15.80
2008,08,07,11,31,15.50
2008,08,07,11,32,15.20
2008,08,07,11,33,14.90
2008,08,07,11,34,14.60
2008,08,07,11,35,14.30
2008,08,07,11,36,14.30
2008,08,07,11,37,14.50
2008,08,07,11,38,14.50
2008,08,07,11,39,14.50
2008,08,07,11,40,14.60
2008,08,07,11,41,14.60
2008,08,07,11,42,14.60
2008,08,07,11,43,14.50
2008,08,07,11,44,14.40
2008,08,07,11,45,14.40
2008,08,07,11,46,14.40
2008,08,07,11,47,14.30
2008,08,07,11,48,14.30
2008,08,07,11,49,14.20
2008,08,07,11,50,14.20
2008,08,07,11,51,14.20
2008,08,07,11,52,14.10
2008,08,07,11,53,14.10
2008,08,07,11,54,14.00
2008,08,07,11,55,13.90
2008,08,07,11,56,13.90
2008,08,07,11,57,14.10
2008,08,07,11,58,14.20
2008,08,07,11,59,14.20
2008,08,07,12,00,14.20
2008,08,07,12,01,14.20
2008,08,07,12,02,14.40
2008,08,07,12,03,14.40
2008,08,07,12,04,14.50
2008,08,07,12,05,14.60
2008,08,07,12,06,14.70
2008,08,07,12,07,14.70
2008,08,07,12,08,14.80
2008,08,07,12,09,14.70
2008,08,07,12,10,14.80
2008,08,07,12,11,15.00
2008,08,07,12,12,15.10
2008,08,07,12,13,15.10
2008,08,07,12,14,15.30
2008,08,07,12,15,15.30
2008,08,07,12,16,15.40
2008,08,07,12,17,15.40
2008,08,07,12,18,15.50
2008,08,07,12,19,15.50
2008,08,07,12,20,15.60
2008,08,07,12,21,15.70
2008,08,07,12,22,15.50
2008,08,07,12,23,15.50
2008,08,07,12,24,15.50
2008,08,07,12,25,15.50
2008,08,07,12,26,15.60
2008,08,07,12,27,15.60
2008,08,07,12,28,15.70
2008,08,07,12,29,15.80
2008,08,07,12,30,15.80
2008,08,07,12,31,15.80
2008,08,07,12,32,15.80
2008,08,07,12,33,15.70
2008,08,07,12,34,15.70
2008,08,07,12,35,15.70
2008,08,07,12,36,15.90
2008,08,07,12,37,16.00
2008,08,07,12,38,15.90
2008,08,07,12,39,15.70
2008,08,07,12,40,15.50
2008,08,07,12,41,15.50
2008,08,07,12,42,15.70
2008,08,07,12,43,15.80
2008,08,07,12,44,15.80
2008,08,07,12,45,15.70
2008,08,07,12,46,15.50
2008,08,07,12,47,15.30
2008,08,07,12,48,15.30
2008,08,07,12,49,15.30
2008,08,07,12,50,15.20
2008,08,07,12,51,15.30
2008,08,07,12,52,15.30
2008,08,07,12,53,15.30
2008,08,07,12,54,15.30
2008,08,07,12,55,15.30
2008,08,07,12,56,15.30
2008,08,07,12,57,15.40
2008,08,07,12,58,15.40
2008,08,07,12,59,15.50
2008,08,07,13,00,15.70
2008,08,07,13,01,15.80
2008,08,07,13,02,15.90
2008,08,07,13,03,16.00
2008,08,07,13,04,16.10
2008,08,07,13,05,16.10
2008,08,07,13,06,16.10
2008,08,07,13,07,15.80
2008,08,07,13,08,15.70
2008,08,07,13,09,15.60
2008,08,07,13,10,15.50
2008,08,07,13,11,15.60
2008,08,07,13,12,15.70
2008,08,07,13,13,15.70
2008,08,07,13,14,15.80
2008,08,07,13,15,15.90
2008,08,07,13,16,16.00
2008,08,07,13,17,15.90
2008,08,07,13,18,15.80
2008,08,07,13,19,15.80
2008,08,07,13,20,15.80
2008,08,07,13,21,15.80
2008,08,07,13,22,16.00
2008,08,07,13,23,16.20
2008,08,07,13,24,16.20
2008,08,07,13,25,16.20
2008,08,07,13,26,16.20
2008,08,07,13,27,16.20
2008,08,07,13,28,16.20
2008,08,07,13,29,16.10
2008,08,07,13,30,16.20
2008,08,07,13,31,16.20
2008,08,07,13,32,16.30
2008,08,07,13,33,16.40
2008,08,07,13,34,16.30
2008,08,07,13,35,16.20
2008,08,07,13,36,16.20
2008,08,07,13,37,16.10
2008,08,07,13,38,16.20
2008,08,07,13,39,16.20
2008,08,07,13,40,16.20
2008,08,07,13,41,16.20
2008,08,07,13,42,16.20
2008,08,07,13,43,16.20
2008,08,07,13,44,16.10
2008,08,07,13,45,15.90
2008,08,07,13,46,15.90
2008,08,07,13,47,15.90
2008,08,07,13,48,15.80
2008,08,07,13,49,15.80
2008,08,07,13,50,15.70
2008,08,07,13,51,15.70
2008,08,07,13,52,15.70
2008,08,07,13,53,15.70
2008,08,07,13,54,15.80
2008,08,07,13,55,15.80
2008,08,07,13,56,15.80
2008,08,07,13,57,15.70
2008,08,07,13,58,15.60
2008,08,07,13,59,15.40
2008,08,07,14,00,15.30
2008,08,07,14,01,15.30
2008,08,07,14,02,15.30
2008,08,07,14,03,15.30
2008,08,07,14,04,15.30
2008,08,07,14,05,15.30
2008,08,07,14,06,15.30
2008,08,07,14,07,15.10
2008,08,07,14,08,15.00
2008,08,07,14,09,14.90
2008,08,07,14,10,15.00
2008,08,07,14,11,15.10
2008,08,07,14,12,15.20
2008,08,07,14,13,15.10
2008,08,07,14,14,15.00
2008,08,07,14,15,14.90
2008,08,07,14,16,14.90
2008,08,07,14,17,14.90
2008,08,07,14,18,15.00
2008,08,07,14,19,15.00
2008,08,07,14,20,15.10
2008,08,07,14,21,15.20
2008,08,07,14,22,15.30
2008,08,07,14,23,15.30
2008,08,07,14,24,15.30
2008,08,07,14,25,15.30
2008,08,07,14,26,15.30
2008,08,07,14,27,15.40
2008,08,07,14,28,15.30
2008,08,07,14,29,15.20
2008,08,07,14,30,15.10
2008,08,07,14,31,14.90
2008,08,07,14,32,14.80
2008,08,07,14,33,14.70
2008,08,07,14,34,14.70
2008,08,07,14,35,14.70
2008,08,07,14,36,14.70
2008,08,07,14,37,14.60
2008,08,07,14,38,14.50
2008,08,07,14,39,14.50
2008,08,07,14,40,14.40
2008,08,07,14,41,14.40
2008,08,07,14,42,14.40
2008,08,07,14,43,14.30
2008,08,07,14,44,14.30
2008,08,07,14,45,14.30
2008,08,07,14,46,14.40
2008,08,07,14,47,14.40
2008,08,07,14,48,14.40
2008,08,07,14,49,14.50
2008,08,07,14,50,14.50
2008,08,07,14,51,14.60
2008,08,07,14,52,14.70
2008,08,07,14,53,14.90
2008,08,07,14,54,15.00
2008,08,07,14,55,15.10
2008,08,07,14,56,15.20
2008,08,07,14,57,15.20
2008,08,07,14,58,15.00
2008,08,07,14,59,14.90
2008,08,07,15,00,14.70
2008,08,07,15,01,14.70
2008,08,07,15,02,14.50
2008,08,07,15,03,14.40
2008,08,07,15,04,14.30
2008,08,07,15,05,14.20
2008,08,07,15,06,14.20
2008,08,07,15,07,14.40
2008,08,07,15,08,14.40
2008,08,07,15,09,14.40
2008,08,07,15,10,14.50
2008,08,07,15,11,14.60
2008,08,07,15,12,14.60
2008,08,07,15,13,14.60
2008,08,07,15,14,14.60
2008,08,07,15,15,14.50
2008,08,07,15,16,14.40
2008,08,07,15,17,14.30
2008,08,07,15,18,14.30
2008,08,07,15,19,14.30
2008,08,07,15,20,14.20
2008,08,07,15,21,14.40
2008,08,07,15,22,14.40
2008,08,07,15,23,14.40
2008,08,07,15,24,14.40
2008,08,07,15,25,14.40
2008,08,07,15,26,14.40
2008,08,07,15,27,14.50
2008,08,07,15,28,14.50
2008,08,07,15,29,14.40
2008,08,07,15,30,14.20
2008,08,07,15,31,14.20
2008,08,07,15,32,14.00
2008,08,07,15,33,14.00
2008,08,07,15,34,14.00
2008,08,07,15,35,14.00
2008,08,07,15,36,14.10
2008,08,07,15,37,14.10
2008,08,07,15,38,14.20
2008,08,07,15,39,14.40
2008,08,07,15,40,14.50
2008,08,07,15,41,14.60
2008,08,07,15,42,14.50
2008,08,07,15,43,14.50
2008,08,07,15,44,14.50
2008,08,07,15,45,14.60
2008,08,07,15,46,14.70
2008,08,07,15,47,14.90
2008,08,07,15,48,15.00
2008,08,07,15,49,15.10
2008,08,07,15,50,15.20
2008,08,07,15,51,15.20
2008,08,07,15,52,15.30
2008,08,07,15,53,15.30
2008,08,07,15,54,15.50
2008,08,07,15,55,15.50
2008,08,07,15,56,15.60
2008,08,07,15,57,15.60
2008,08,07,15,58,15.60
2008,08,07,15,59,15.60
2008,08,07,16,00,15.60
2008,08,07,16,01,15.60
2008,08,07,16,02,15.60
2008,08,07,16,03,15.60
2008,08,07,16,04,15.70
2008,08,07,16,05,15.70
2008,08,07,16,06,15.70
2008,08,07,16,07,15.70
2008,08,07,16,08,15.70
2008,08,07,16,09,15.60
2008,08,07,16,10,15.60
2008,08,07,16,11,15.60
2008,08,07,16,12,15.50
2008,08,07,16,13,15.40
2008,08,07,16,14,15.30
2008,08,07,16,15,15.20
2008,08,07,16,16,15.10
2008,08,07,16,17,15.20
2008,08,07,16,18,15.20
2008,08,07,16,19,15.20
2008,08,07,16,20,15.10
2008,08,07,16,21,15.00
2008,08,07,16,22,15.00
2008,08,07,16,23,14.90
2008,08,07,16,24,14.90
2008,08,07,16,25,14.80
2008,08,07,16,26,14.80
2008,08,07,16,27,14.80
2008,08,07,16,28,14.80
2008,08,07,16,29,14.80
2008,08,07,16,30,14.80
2008,08,07,16,31,14.80
2008,08,07,16,32,14.70
2008,08,07,16,33,14.60
2008,08,07,16,34,14.60
2008,08,07,16,35,14.70
2008,08,07,16,36,14.70
2008,08,07,16,37,14.70
2008,08,07,16,38,14.80
2008,08,07,16,39,14.80
2008,08,07,16,40,14.90
2008,08,07,16,41,15.00
2008,08,07,16,42,15.10
2008,08,07,16,43,15.20
2008,08,07,16,44,15.30
2008,08,07,16,45,15.20
2008,08,07,16,46,15.20
2008,08,07,16,47,15.10
2008,08,07,16,48,15.00
2008,08,07,16,49,15.00
2008,08,07,16,50,14.90
2008,08,07,16,51,14.80
2008,08,07,16,52,14.80
2008,08,07,16,53,14.80
2008,08,07,16,54,14.80
2008,08,07,16,55,14.80
2008,08,07,16,56,14.80
2008,08,07,16,57,14.90
2008,08,07,16,58,14.90
2008,08,07,16,59,14.90
2008,08,07,17,00,14.90
2008,08,07,17,01,14.90
2008,08,07,17,02,14.90
2008,08,07,17,03,15.00
2008,08,07,17,04,15.00
2008,08,07,17,05,15.00
2008,08,07,17,06,15.00
2008,08,07,17,07,15.10
2008,08,07,17,08,15.10
2008,08,07,17,09,15.10
2008,08,07,17,10,15.10
2008,08,07,17,11,15.10
2008,08,07,17,12,15.20
2008,08,07,17,13,15.20
2008,08,07,17,14,15.20
2008,08,07,17,15,15.20
2008,08,07,17,16,15.20
2008,08,07,17,17,15.30
2008,08,07,17,18,15.40
2008,08,07,17,19,15.40